Location: Passau
(48.5830°N, 13.4830°E)
Time: 16:06:14
(UTC+02:00)

S-56A Canister/Altair - All Passes

Search period start: 18 May 2024 00:00
Search period end: 28 May 2024 00:00
Orbit: 638 x 2488 km, 38.9° (Epoch: 18 May)

Date Brightness Start Highest point End Pass type
(mag) Time Alt. Az. Time Alt. Az. Time Alt. Az.
18 May - 07:27:02 10° SSW 07:34:27 20° SSE 07:40:18 10° ESE daylight
18 May - 09:29:42 10° SW 09:38:15 35° S 09:44:15 10° ESE daylight
18 May - 11:34:40 10° WSW 11:41:40 36° S 11:46:43 10° SE daylight
18 May - 13:40:23 10° WSW 13:44:17 18° SSW 13:47:35 10° SSE daylight
19 May - 06:53:15 10° S 07:00:43 20° SSE 07:06:43 10° ESE daylight
19 May - 08:55:30 10° SW 09:04:37 35° SSE 09:11:02 10° ESE daylight
19 May - 11:00:28 10° WSW 11:08:13 38° S 11:13:39 10° ESE daylight
19 May - 13:06:10 10° WSW 13:11:00 21° SSW 13:14:53 10° SSE daylight
20 May - 06:19:33 10° S 06:26:57 18° SSE 06:33:02 10° ESE daylight
20 May - 08:21:17 10° SW 08:30:56 35° SSE 08:37:45 10° ESE daylight
20 May - 10:26:12 10° WSW 10:34:42 40° S 10:40:33 10° ESE daylight
20 May - 12:31:57 10° WSW 12:37:40 25° SSW 12:42:04 10° SSE daylight
21 May - 05:45:57 10° S 05:53:09 17° SE 05:59:12 10° ESE daylight
21 May - 07:47:03 10° SW 07:57:10 34° SSE 08:04:26 10° E daylight
21 May - 09:51:53 10° WSW 10:01:06 42° S 10:07:24 10° ESE daylight
21 May - 11:57:41 10° W 12:04:18 29° SSW 12:09:11 10° SE daylight
22 May - 05:12:32 10° S 05:19:18 16° SE 05:25:10 10° ESE daylight
22 May - 07:12:50 10° SW 07:23:21 33° SSE 07:31:03 10° E daylight
22 May - 09:17:30 10° WSW 09:27:28 44° S 09:34:13 10° ESE daylight
22 May - 11:23:21 10° W 11:30:52 33° SSW 11:36:13 10° SE daylight
22 May - 13:31:11 10° WSW 13:33:05 11° SW 13:34:48 10° SSW daylight
23 May - 04:39:22 10° SSE 04:45:26 14° SE 04:50:52 10° ESE visible
23 May - 06:38:40 10° SSW 06:49:29 32° SSE 06:57:35 10° E daylight
23 May - 08:43:05 10° WSW 08:53:44 45° S 09:01:00 10° ESE daylight
23 May - 10:48:59 10° W 10:57:23 37° SSW 11:03:14 10° SE daylight
23 May - 12:56:02 10° WSW 12:59:47 15° SW 13:02:58 10° S daylight
24 May - 04:06:34 10° SSE 04:11:34 13° SE 04:16:12 10° ESE visible
24 May - 06:04:32 10° SSW 06:15:34 31° SSE 06:24:02 10° E daylight
24 May - 08:08:39 10° WSW 08:19:55 45° S 08:27:42 10° ESE daylight
24 May - 10:14:33 10° W 10:23:49 41° SSW 10:30:09 10° SE daylight
24 May - 12:21:20 10° WSW 12:26:28 19° SW 12:30:34 10° S daylight
25 May - 03:34:32 10° SSE 03:37:42 11° SE 03:40:44 10° ESE visible
25 May - 05:30:29 10° SSW 05:41:36 30° SSE 05:50:22 10° E daylight
25 May - 07:34:12 10° WSW 07:46:03 45° S 07:54:22 10° ESE daylight
25 May - 09:40:04 10° WSW 09:50:10 44° SSW 09:57:01 10° ESE daylight
25 May - 11:46:44 10° W 11:53:06 23° SW 11:57:57 10° SSE daylight
26 May - 04:56:32 10° SSW 05:07:36 28° SSE 05:16:37 10° E daylight
26 May - 06:59:46 10° SW 07:12:07 45° SSE 07:20:58 10° E daylight
26 May - 09:05:32 10° WSW 09:16:27 47° S 09:23:51 10° ESE daylight
26 May - 11:12:09 10° W 11:19:40 27° SSW 11:25:11 10° SSE daylight
27 May - 04:22:41 10° SSW 04:33:34 26° SE 04:42:44 10° E visible
27 May - 06:25:23 10° SW 06:38:06 44° SSE 06:47:28 10° E daylight
27 May - 08:30:59 10° WSW 08:42:38 49° S 08:50:36 10° ESE daylight
27 May - 10:37:34 10° W 10:46:09 31° SSW 10:52:17 10° SSE daylight
